World > North America > United States > Texas > Rio Medina  

Rio Medina, TX Hourly Weather Updates

Feedback E-mail the Weather

Quick Clicks

Rio Medina, TX Weather Maps

°F °C°F °C
Rio Medina Weather Map
UTC Time: 6/17/2024, 04:54
Your Time:

Rio Medina, TX Regional Weather

Expires:202406170500;;152693
ASUS44 KSJT 170410
RWRSJT
WEST CENTRAL TEXAS REGIONAL WEATHER ROUNDUP
NATIONAL WEATHER SERVICE SAN ANGELO TX
1100 PM CDT SUN JUN 16 2024

NOTE: "FAIR" INDICATES FEW OR NO CLOUDS BELOW 12,000 FEET WITH NO
SIGNIFICANT WEATHER AND/OR OBSTRUCTIONS TO VISIBILITY.


TXZ171-183-184-186-188-203-204-170500-
TEXAS HILL COUNTRY AND EDWARDS PLATEAU
  
CITY           SKY/WX    TMP DP  RH WIND       PRES   REMARKS
LLANO          CLOUDY    84  70  61 SE14G22   29.83R TC  29           
HORSESHOE BAY  CLEAR     84  71  63 SE15G23   29.85R TC  29           
KERRVILLE      CLOUDY    84  71  64 SE18      29.86R TC  29           
FREDERICKSBRG  CLEAR     82  71  67 SE16G24   29.87R TC  28           
ROCKSPRINGS    CLEAR     84  61  45 SE12      29.89R TC  29           
HONDO          CLEAR     85  70  60 SE28G35   29.82R TC  29           
UVALDE         CLEAR     87  69  55 SE18      29.81R TC  31           
DEL RIO        CLEAR     95  60  31 SE10      29.71R TC  35           
$$


SKY/WX - Weather  TMP - Temperature  DP - Dew Point  RH - Humidity
WIND - Wind Direction/Speed PRES - Barometric Pressure VSB - Visibility
WCI - Wind Chill Index E13G22 Wind - East Wind 13 mph/Gusts of 22 mph

Trending Headlines

Trending Entertainment Headlines

Rio Medina Radar Loop

Use the map search tool if you want to place a location marker on the radar map...

Rio Medina Quick Facts

National Two Day Weather Forecast


E-mail the Rio Medina Weather Forecast

Voice your opinion or tell us about page issues...